Miscellaneous Local Product
Issued by NWS North Platte, NE

Home | Current Version | Previous Version | Graphics & Text | Print | Product List | Glossary On
Versions: 1 2 3 4 5 6 7 8 9 10 11 12 13 14 15 16 17 18 19 20 21 22 23 24 25 26 27 28 29 30 31 32 33 34 35 36 37 38 39 40 41 42 43 44 45 46 47 48 49 50
000
AXUS43 KLBF 230210
MISLBF


WESTERN AND NORTH CENTRAL NEBRASKA HOURLY WEATHER ROUNDUP
NATIONAL WEATHER SERVICE NORTH PLATTE NE
900 PM CDT FRI MAY 22 2015

***STATIONS NOT REPORTING VARIABLES SUCH AS SKY/WEATHER OR
PRESSURE ARE PROVIDED BY THE NEBRASKA DEPARTMENT OF
ROADS...RAWS...AND APRS NETWORKS...AND ARE NOT UNDER
NATIONAL WEATHER SERVICE QUALITY CONTROL***

...OBSERVATIONS IN AND NEAR THE EASTERN PANHANDLE OF NEBRASKA...

CITY           SKY/WX    TMP DP  RH WIND       PRES   REMARKS
PINE RIDGE     CLOUDY    48  42  80 SE7       30.10R
CHADRON        CLOUDY    49  44  83 SE8       30.08R
ALLIANCE       CLOUDY    46  44  93 SE13      30.07R
SIDNEY         CLOUDY    45  44  97 E14       30.06S FOG
WHITECLAY        N/A     44  41  88 SE10        N/A
BIG SPRINGS      N/A     48  47  96 E13         N/A
$$

...OBSERVATIONS IN NORTH CENTRAL NEBRASKA...

CITY           SKY/WX    TMP DP  RH WIND       PRES   REMARKS
VALENTINE      CLOUDY    50  42  74 SE12      30.14R
THEDFORD       RAIN      48  46  91 SE12      30.13S
AINSWORTH      LGT RAIN  48  45  90 SE8       30.15S
O`NEILL        LGT RAIN  51  49  90 SE5       30.17S
ORD            LGT RAIN  49  47  93 E5        30.15S
BROKEN BOW     LGT RAIN  50  47  89 E9        30.13S
BROWNLEE         N/A     50  48  92 SE12        N/A
VALENTINE NWR    N/A     46  44  91 SE10G18     N/A
SPRINGVIEW       N/A     49  45  86 E3          N/A
BREWSTER         N/A     47  46  95 SE12        N/A
ROSE             N/A     47  47  99 E9          N/A
NEWPORT          N/A     48  47  97 E3          N/A
SARGENT          N/A     48  47  95 E3          N/A
COMSTOCK         N/A     51  50  99 E3          N/A
EWING            N/A     51  48  91 CALM        N/A
$$

...OBSERVATIONS IN SOUTHWEST NEBRASKA AND FAR NORTHEAST COLORADO...

CITY           SKY/WX    TMP DP  RH WIND       PRES   REMARKS
WRAY           CLOUDY   N/A N/A N/A E14       30.01S
IMPERIAL       CLOUDY    49  47  93 SE15      30.04R FOG
OGALLALA       LGT RAIN  47  46  98 E12       30.07S
NORTH PLATTE   LGT RAIN  48  47  96 E14       30.10R
MCCOOK         CLOUDY    51  50  96 E15       30.07S FOG
LEXINGTON      RAIN      51  50  96 SE12      30.11S
PAXTON           N/A     48  47  95 E10         N/A
GOTHENBURG       N/A     49  47  93 E9          N/A
CALLAWAY         N/A     48  47  97 E16         N/A
$$

...NORTH PLATTE AREA...

CITY           SKY/WX    TMP DP  RH WIND       PRES   REMARKS
AIRPORT        LGT RAIN  48  47  96 E14       30.10R
DOWNTOWN         N/A     48  47  95 E8G17       N/A
$$

...SOME WEATHER OBSERVATIONS FROM AROUND THE REGION...

CITY           SKY/WX    TMP DP  RH WIND       PRES   REMARKS
DENVER         MOCLDY    51  46  83 E7        30.01R
LARAMIE        RAIN      42  40  92 SE22G30   30.03R
CHEYENNE       CLOUDY    46  42  86 SE7       30.03S FOG
SCOTTSBLUFF    CLOUDY    47  46  97 SE15      30.06R FOG
RAPID CITY     CLOUDY    52  41  66 SE10      30.08R
PIERRE         MOCLDY    56  42  59 S14       30.13R
WINNER         CLOUDY    54  39  57 S16       30.16R
SIOUX FALLS    CLOUDY    59  42  53 SW9       30.19R
OMAHA          CLOUDY    63  46  54 SE7       30.18R
GRAND ISLAND   CLOUDY    54  48  80 SE8       30.16S
KANSAS CITY    CLOUDY    61  50  67 SE8       30.20S
WICHITA        DRIZZLE   56  54  93 SE8       30.15R FOG
HAYS           CLOUDY    55  48  76 SE15      30.09S
LIBERAL        PTCLDY    59  54  82 SE21      30.02S
GOODLAND       CLOUDY    54  52  93 SE16      30.02R
$$



USA.gov is the U.S. government's official web portal to all federal, state and local government web resources and services.